Stations météo

réclame
Mon MeteoGroup
Hoogeveen aws, Pays-Bas (6279): Température de l'air & dewpoint: 18.02.2018 22:00:00 - 24.02.2018 22:00:00 (CET)Hoogeveen aws, Pays-Bas (6279): Température de l'air 5cm: 18.02.2018 22:00:00 - 24.02.2018 22:00:00 (CET)Hoogeveen aws, Pays-Bas (6279): Vitesse du vent & gusts: 18.02.2018 22:00:00 - 24.02.2018 22:00:00 (CET)Hoogeveen aws, Pays-Bas (6279): Direction du vent: 18.02.2018 22:00:00 - 24.02.2018 22:00:00 (CET)Hoogeveen aws, Pays-Bas (6279): reduced air pressure: 18.02.2018 22:00:00 - 24.02.2018 22:00:00 (CET)Hoogeveen aws, Pays-Bas (6279): visibility: 18.02.2018 22:00:00 - 24.02.2018 22:00:00 (CET)Hoogeveen aws, Pays-Bas (6279): Quantités de précipitations: 18.02.2018 22:00:00 - 24.02.2018 22:00:00 (CET)
Date & Time tt [°C] td [°C] tt 5cm [°C] ff [km/h] ff [knt] fx [km/h] fx [knt] dd ppp [hPa] vv [km] rr [mm]
24.02.2018 22:00:00 -1,4 -8,3 -2,7 18 10 32 18 ENE 1030,9 50 0,0
24.02.2018 21:00:00 -1,1 -7,4 -2,4 18 10 36 19 ENE 1030,4 50 0,0
24.02.2018 20:00:00 -0,6 -7,4 -1,8 22 12 32 18 ENE 1030,2 50 0,0
24.02.2018 19:00:00 0,2 -7,7 -1,2 22 12 32 18 E 1029,7 50 0,0
24.02.2018 18:00:00 0,8 -7,1 -0,4 22 12 40 21 E 1029,1 48 0,0
24.02.2018 17:00:00 1,5 -5,5 0,9 22 12 43 23 E 1028,8 49 0,0
24.02.2018 16:00:00 1,9 -5,7 2,1 29 16 43 23 E 1028,9 47 0,0
24.02.2018 15:00:00 3,2 -3,4 4,1 29 16 47 25 E 1029,1 39 0,0
24.02.2018 14:00:00 2,2 -4,3 3,6 29 16 40 21 ESE 1029,0 40 0,0
24.02.2018 13:00:00 1,9 -4,1 2,3 29 16 54 29 E 1029,1 41 0,0
24.02.2018 12:00:00 0,8 -4,4 0,9 32 18 50 27 E 1029,5 41 0,0
24.02.2018 11:00:00 -0,1 -5,3 0,2 36 19 50 27 E 1029,4 34 0,0
24.02.2018 10:00:00 -1,4 -7,4 -0,8 22 12 36 19 E 1029,4 29 0,0
24.02.2018 09:00:00 -2,7 -8,3 -2,8 22 12 29 16 E 1029,0 28 0,0
24.02.2018 08:00:00 -3,7 -8,5 -4,7 18 10 25 14 ENE 1028,5 26 0,0
24.02.2018 07:00:00 -3,9 -8,5 -5,1 18 10 25 14 ENE 1027,9 23 0,0
24.02.2018 06:00:00 -3,4 -9,0 -4,6 18 10 25 14 E 1027,3 27 0,0
24.02.2018 05:00:00 -3,2 -9,0 -4,3 18 10 29 16 E 1026,9 26 0,0
24.02.2018 04:00:00 -2,9 -9,1 -4,1 18 10 29 16 E 1026,5 26 0,0
24.02.2018 03:00:00 -2,7 -8,7 -4,1 18 10 25 14 ENE 1026,4 26 0,0
24.02.2018 02:00:00 -2,5 -8,3 -3,8 18 10 32 18 E 1026,4 25 0,0
24.02.2018 01:00:00 -2,1 -7,6 -3,4 22 12 32 18 E 1026,1 21 0,0
24.02.2018 00:00:00 -2,0 -6,7 -3,3 18 10 29 16 ENE 1026,0 18 0,0
23.02.2018 23:00:00 -1,6 -6,4 -2,9 22 12 32 18 E 1025,6 19 0,0
23.02.2018 22:00:00 -1,3 -6,2 -2,7 18 10 29 16 ENE 1025,4 21 0,0
23.02.2018 21:00:00 -1,0 -6,2 -2,4 18 10 29 16 E 1025,4 28 0,0
23.02.2018 20:00:00 -0,9 -5,6 -3,1 18 10 22 12 ENE 1025,1 28 0,0
23.02.2018 19:00:00 -0,6 -5,7 -2,0 14 8 25 14 ENE 1024,7 37 0,0
23.02.2018 18:00:00 0,3 -5,8 -1,5 14 8 29 16 ENE 1024,4 45 0,0
23.02.2018 17:00:00 1,5 -5,9 0,7 25 14 32 18 ENE 1024,2 40 0,0
23.02.2018 16:00:00 2,2 -5,2 2,2 22 12 36 19 ENE 1024,3 42 0,0
23.02.2018 15:00:00 2,4 -5,0 3,1 25 14 40 21 ENE 1024,5 32 0,0
23.02.2018 14:00:00 2,5 -4,3 1,9 22 12 36 19 E 1024,9 27 0,0
23.02.2018 13:00:00 2,2 -4,6 4,0 22 12 36 19 E 1025,4 29 0,0
23.02.2018 12:00:00 1,6 -4,4 3,2 22 12 36 19 E 1025,8 31 0,0
23.02.2018 11:00:00 0,9 -3,0 2,2 22 12 36 19 E 1026,0 19 0,0
23.02.2018 10:00:00 0,3 -2,0 0,8 18 10 29 16 ENE 1026,0 12 0,0
23.02.2018 09:00:00 -0,6 -1,8 -0,6 14 8 22 12 ENE 1025,9 7 0,0
23.02.2018 08:00:00 -1,4 -2,3 -1,8 11 6 18 10 NE 1025,6 5 0,0
23.02.2018 07:00:00 -1,8 -2,7 -2,2 11 6 18 10 NE 1025,0 5 0,0
23.02.2018 06:00:00 -2,5 -3,3 -2,9 11 6 14 8 NE 1024,9 3,9 0,0
23.02.2018 05:00:00 -3,3 -4,1 -4,0 11 6 14 8 NNE 1024,7 3,3 0,0
23.02.2018 04:00:00 -3,1 -3,8 -4,0 11 6 14 8 NE 1024,9 2,9 0,0
23.02.2018 03:00:00 -2,6 -3,2 -3,5 11 6 18 10 NE 1025,3 2,5 0,0
23.02.2018 02:00:00 -2,0 -2,6 -2,9 14 8 18 10 NE 1025,6 2,7 0,0
23.02.2018 01:00:00 -1,7 -2,4 -2,5 14 8 22 12 NE 1025,7 3,4 0,0
23.02.2018 00:00:00 -1,6 -2,4 -2,5 14 8 18 10 NE 1025,8 4,0 0,0
22.02.2018 23:00:00 -1,4 -2,2 -2,7 11 6 18 10 NE 1025,8 4,8 0,0
22.02.2018 22:00:00 -1,2 -2,2 -2,4 11 6 18 10 NE 1025,8 6 0,0
22.02.2018 21:00:00 -0,4 -1,7 -1,3 14 8 18 10 NE 1025,7 8 0,0
22.02.2018 20:00:00 -0,2 -1,7 -1,0 14 8 22 12 NE 1025,8 9 0,0
22.02.2018 19:00:00 -0,4 -2,1 -1,4 14 8 22 12 NNE 1025,8 12 0,0
22.02.2018 18:00:00 -0,3 -2,2 -1,1 11 6 18 10 NNE 1025,6 15 0,0
22.02.2018 17:00:00 1,1 -1,9 1,0 14 8 22 12 NE 1025,8 18 0,0
22.02.2018 16:00:00 1,3 -2,0 1,4 14 8 22 12 NE 1025,8 18 0,0
22.02.2018 15:00:00 1,4 -2,2 1,7 18 10 22 12 NNE 1026,0 22 0,0
22.02.2018 14:00:00 1,0 -2,6 1,0 18 10 25 14 ENE 1026,9 12 0,0
22.02.2018 13:00:00 2,3 -2,6 3,2 14 8 25 14 E 1027,1 21 0,0
22.02.2018 12:00:00 1,8 -2,5 2,8 14 8 25 14 NE 1027,3 18 0,0
22.02.2018 11:00:00 2,3 -2,9 3,1 18 10 22 12 ENE 1027,2 24 0,0
22.02.2018 10:00:00 0,4 -2,4 0,9 11 6 14 8 NE 1027,3 11 0,0
22.02.2018 09:00:00 -1,7 -3,5 -2,2 11 6 14 8 NE 1027,2 7 0,0
22.02.2018 08:00:00 -3,6 -4,7 -5,0 11 6 11 6 NNE 1027,1 6 0,0
22.02.2018 07:00:00 -3,6 -4,7 -4,8 11 6 14 8 NE 1026,9 7 0,0
22.02.2018 06:00:00 -3,2 -4,5 -4,1 11 6 14 8 NNE 1026,8 8 0,0
22.02.2018 05:00:00 -3,1 -4,5 -4,3 11 6 14 8 NE 1026,7 8 0,0
22.02.2018 04:00:00 -2,7 -4,3 -3,7 11 6 18 10 NE 1026,7 9 0,0
22.02.2018 03:00:00 -2,6 -4,2 -3,5 11 6 14 8 NE 1026,9 9 0,0
22.02.2018 02:00:00 -2,4 -4,1 -3,2 11 6 18 10 NNE 1027,0 10 0,0
22.02.2018 01:00:00 -1,4 -3,5 -2,1 11 6 18 10 NNE 1027,3 11 0,0
22.02.2018 00:00:00 -0,5 -3,1 -1,0 11 6 18 10 NNE 1027,3 11 0,0
21.02.2018 23:00:00 -0,3 -2,9 -1,1 11 6 18 10 NE 1027,2 10 0,0
21.02.2018 22:00:00 -1,1 -3,5 -2,4 11 6 14 8 NNE 1027,3 9 0,0
21.02.2018 21:00:00 -0,6 -3,3 -1,6 7 4 11 6 NNE 1027,1 10 0,0
21.02.2018 20:00:00 -0,5 -3,3 -2,1 7 4 14 8 NE 1026,8 11 0,0
21.02.2018 19:00:00 -0,4 -3,5 -2,9 7 4 11 6 NE 1026,5 12 0,0
21.02.2018 18:00:00 0,2 -3,7 -1,9 11 6 22 12 ENE 1026,1 13 0,0
21.02.2018 17:00:00 2,0 -3,4 1,2 18 10 22 12 NE 1025,9 15 0,0
21.02.2018 16:00:00 3,0 -3,0 3,0 14 8 22 12 ENE 1025,9 15 0,0
21.02.2018 15:00:00 3,7 -2,7 4,7 14 8 25 14 NE 1026,3 15 0,0
21.02.2018 14:00:00 3,9 -3,0 4,9 14 8 22 12 NE 1026,8 14 0,0
21.02.2018 13:00:00 3,4 -2,4 4,7 14 8 22 12 NE 1027,2 12 0,0
21.02.2018 12:00:00 2,6 -2,0 3,9 11 6 14 8 NNE 1027,3 11 0,0
21.02.2018 11:00:00 1,2 -2,0 2,1 7 4 14 8 NNE 1027,4 9 0,0
21.02.2018 10:00:00 -0,7 -2,3 -0,3 7 4 11 6 NE 1027,1 5 0,0
21.02.2018 09:00:00 -2,5 -3,4 -3,3 4 2 7 4 N 1026,8 3,7 0,0
21.02.2018 08:00:00 -3,6 -4,0 -6,1 4 2 7 4 N 1026,7 2,5 0,0
21.02.2018 07:00:00 -3,3 -4,0 -5,8 4 2 7 4 N 1026,7 3,2 0,0
21.02.2018 06:00:00 -3,3 -4,0 -4,7 7 4 11 6 NNE 1026,3 3,6 0,0
21.02.2018 05:00:00 -3,0 -3,8 -4,2 7 4 11 6 NNE 1026,2 3,7 0,0
21.02.2018 04:00:00 -2,4 -3,5 -3,8 7 4 11 6 NNE 1026,2 4,3 0,0
21.02.2018 03:00:00 -2,0 -3,3 -3,3 7 4 14 8 NNE 1026,0 4,7 0,0
21.02.2018 02:00:00 -1,4 -3,0 -2,1 14 8 14 8 NNE 1025,8 5 0,0
21.02.2018 01:00:00 -1,5 -3,1 -2,9 11 6 14 8 NE 1025,3 5 0,0
21.02.2018 00:00:00 -1,0 -2,9 -2,4 14 8 18 10 NNE 1025,2 6 0,0
20.02.2018 23:00:00 -0,7 -2,7 -2,0 11 6 14 8 NNE 1024,7 7 0,0
20.02.2018 22:00:00 -0,8 -2,7 -2,4 11 6 14 8 NNE 1024,0 7 0,0
20.02.2018 21:00:00 -0,5 -2,6 -2,6 11 6 14 8 NE 1023,5 8 0,0
20.02.2018 20:00:00 0,4 -1,9 -1,6 11 6 14 8 NNE 1022,8 8 0,0
20.02.2018 19:00:00 -0,1 -1,8 -3,4 7 4 11 6 NNE 1022,2 8 0,0
20.02.2018 18:00:00 0,9 -1,6 -1,9 7 4 11 6 N 1021,3 9 0,0
20.02.2018 17:00:00 1,8 -1,0 0,6 7 4 14 8 N 1020,6 9 0,0
20.02.2018 16:00:00 2,8 -0,8 2,2 14 8 18 10 NE 1020,5 10 0,0
20.02.2018 15:00:00 4,2 -1,3 4,9 11 6 18 10 ENE 1020,4 11 0,0
20.02.2018 14:00:00 4,3 -0,4 5,0 11 6 18 10 ENE 1020,3 9 0,0
20.02.2018 13:00:00 3,9 -0,2 4,8 7 4 11 6 E 1020,4 10 0,0
20.02.2018 12:00:00 2,9 -0,8 3,7 11 6 14 8 E 1020,3 9 0,0
20.02.2018 11:00:00 2,5 -0,6 3,6 4 2 7 4 E 1020,2 8 0,0
20.02.2018 10:00:00 0,9 -0,3 0,5 4 2 7 4 ENE 1019,7 4,0 0,0
20.02.2018 09:00:00 -1,8 -2,3 -3,3 4 2 4 2 NE 1019,5 2,0 0,0
20.02.2018 08:00:00 -3,5 -3,9 -5,8 4 2 7 4 NNW 1019,6 0,8 0,0
20.02.2018 07:00:00 -3,1 -3,2 -5,9 4 2 7 4 NNE 1019,4 1,3 0,0
20.02.2018 06:00:00 -2,8 -3,2 -5,0 4 2 7 4 N 1019,4 2,1 0,0
20.02.2018 05:00:00 -3,0 -3,4 -5,2 7 4 7 4 N 1019,4 2,3 0,0
20.02.2018 04:00:00 -3,1 -3,4 -5,2 4 2 7 4 NNE 1019,1 2,3 0,0
20.02.2018 03:00:00 -3,0 -3,2 -5,5 4 2 7 4 NNE 1018,8 2,0 0,0
20.02.2018 02:00:00 -2,6 -2,8 -5,8 4 2 7 4 ENE 1018,8 2,0 0,0
20.02.2018 01:00:00 -2,8 -3,0 -5,7 4 2 7 4 NNE 1019,0 0,8 0,0
20.02.2018 00:00:00 -2,3 -2,5 -5,3 4 2 4 2 NE 1019,0 1,9 0,0
19.02.2018 23:00:00 -2,3 -2,6 -4,9 4 2 4 2 NNE 1019,0 2,2 0,0
19.02.2018 22:00:00 -1,7 -2,0 -4,3 4 2 7 4 ENE 1018,9 1,2 0,0
19.02.2018 21:00:00 -1,4 -1,8 -3,9 7 4 7 4 ENE 1019,1 2,2 0,0
19.02.2018 20:00:00 -1,0 -1,5 -3,5 4 2 7 4 ENE 1019,0 3,4 0,0
19.02.2018 19:00:00 -0,3 -1,1 -3,6 4 2 7 4 ESE 1018,7 4,9 0,0
19.02.2018 18:00:00 0,3 -1,2 -3,1 4 2 7 4 E 1018,6 7 0,0
19.02.2018 17:00:00 2,0 -0,5 -1,1 7 4 11 6 SE 1018,6 8 0,0
19.02.2018 16:00:00 3,6 -0,9 3,4 11 6 11 6 SSE 1018,7 12 0,0
19.02.2018 15:00:00 4,0 -0,6 4,6 7 4 14 8 SSE 1019,1 11 0,0
19.02.2018 14:00:00 3,5 -0,5 4,4 7 4 14 8 SSE 1019,0 11 0,0
19.02.2018 13:00:00 3,4 -0,6 4,7 11 6 18 10 SSE 1019,6 11 0,0
19.02.2018 12:00:00 2,5 -1,0 3,2 11 6 22 12 S 1020,2 10 0,0
19.02.2018 11:00:00 1,6 -1,2 2,0 11 6 22 12 SSW 1020,2 9 0,0
19.02.2018 10:00:00 0,9 -1,2 0,5 11 6 22 12 S 1020,3 8 0,0
19.02.2018 09:00:00 0,4 -1,4 -0,1 11 6 18 10 S 1020,4 7 0,0
19.02.2018 08:00:00 0,0 -1,7 -0,7 11 6 14 8 S 1020,4 8 0,0
19.02.2018 07:00:00 -0,3 -1,9 -1,1 11 6 14 8 S 1020,5 8 0,0
19.02.2018 06:00:00 -0,6 -2,2 -1,8 7 4 11 6 SSE 1020,6 8 0,0
19.02.2018 05:00:00 -0,3 -2,1 -1,4 7 4 11 6 S 1020,8 8 0,0
19.02.2018 04:00:00 -0,1 -1,9 -1,3 7 4 11 6 S 1021,4 8 0,0
19.02.2018 03:00:00 0,0 -1,7 -1,5 7 4 11 6 S 1021,7 8 0,0
19.02.2018 02:00:00 -0,1 -1,7 -2,7 7 4 11 6 S 1022,3 7 0,0
19.02.2018 01:00:00 -0,7 -1,5 -3,7 7 4 11 6 SSE 1022,8 4,9 0,0
19.02.2018 00:00:00 -0,1 -1,5 -3,2 7 4 11 6 S 1023,2 7 0,0
18.02.2018 23:00:00 0,1 -1,4 -2,8 7 4 14 8 S 1023,5 8 0,0
18.02.2018 22:00:00 0,8 -1,1 -2,0 11 6 18 10 S 1023,5 9 0,0

tt = Température de l'air
td = dewpoint
tt 5cm = Température de l'air 5cm
ff = Vitesse du vent
fx = gusts
dd = Direction du vent
ppp = reduced air pressure
vv = visibility
rr = Quantités de précipitations

stations d'obs. à proximité